Home > Weather > Midland > Past weeks

Flag for U.S.A. Weather for the Past 2 Weeks in Midland, Texas, U.S.A.

Now
38 °F

Clear.


Feels Like: 35 °F
Forecast: 35 / 67 °F
Wind: 5 mph from West

Location: Midland - Midland Airpark

Current Time: Feb 7, 2016 at 7:41:24 AM

Latest Report: Feb 7, 2016 at 7:15 AM


Visibility: 10 mi

Pressure: 30.18 "Hg (27.18 "Hg at 847m altitude)

Humidity: 38%

Dew point: 15 °F

Location of MidlandLocation

Historic Weather in Midland — Graph

°F

Midland Temperature Yesterday

Maximum temperature yesterday: 59 °F (at 4:15 PM)
Minimum temperature yesterday: 28 °F (at 6:35 AM)
Average temperature yesterday: 43 °F

High & Low Weather Summary for the Past Weeks

 TemperatureHumidityPressure
High80 °F (Jan 30, 3:15 PM)100% (Jan 26, 2:55 PM)30.47 "Hg (Jan 26, 2:55 PM)
Low27 °F (Feb 3, 6:35 AM)7% (Jan 30, 4:15 PM)29.45 "Hg (Feb 1, 3:55 PM)
Average48 °F44%30.08 "Hg
* Reported Jan 23 6:15 AM — Feb 7 6:15 AM, Midland, Weather by CustomWeather, © 2016

Note: Actual official high and low records may vary slightly from our data, if they occured in-between our weather recording intervals... More about our weather records

Advertising

Midland Weather History for the Previous 24 Hours

 ConditionsComfort  
Time TempWeatherWind HumidityBarometerVisibility
6:15 AM
Sun, Feb 7
40 °FClear.5 mph35%30.16 "Hg10 mi
5:55 AM42 °FClear.8 mph31%30.16 "Hg10 mi
5:35 AM42 °FClear.6 mph33%30.16 "Hg10 mi
5:15 AM41 °FClear.9 mph34%30.16 "Hg10 mi
4:55 AM41 °FClear.8 mph35%30.16 "Hg10 mi
4:35 AM41 °FClear.9 mph35%30.17 "Hg10 mi
4:15 AM41 °FClear.7 mph36%30.18 "Hg10 mi
3:55 AM42 °FClear.8 mph34%30.19 "Hg10 mi
3:35 AM41 °FClear.7 mph35%30.19 "Hg10 mi
3:15 AM41 °FClear.8 mph37%30.20 "Hg10 mi
2:55 AM41 °FClear.7 mph36%30.21 "Hg10 mi
2:35 AM42 °FClear.7 mph35%30.22 "Hg10 mi
2:15 AM43 °FClear.7 mph33%30.22 "Hg10 mi
1:55 AM43 °FClear.7 mph32%30.23 "Hg10 mi
1:35 AM44 °FClear.8 mph31%30.24 "Hg10 mi
1:15 AM44 °FClear.6 mph30%30.25 "Hg10 mi
12:55 AM44 °FClear.9 mph29%30.25 "Hg10 mi
12:15 AM44 °FClear.6 mph29%30.26 "Hg10 mi
11:55 PM
Sat, Feb 6
45 °FClear.8 mph27%30.26 "Hg10 mi
11:35 PM46 °FClear.8 mph26%30.26 "Hg10 mi
11:15 PM46 °FClear.8 mph27%30.26 "Hg10 mi
10:55 PM46 °FClear.8 mph26%30.27 "Hg10 mi
10:35 PM46 °FClear.12 mph27%30.27 "Hg10 mi
10:15 PM45 °FClear.8 mph28%30.27 "Hg10 mi
9:35 PM47 °FClear.8 mph24%30.27 "Hg10 mi
9:15 PM47 °FClear.8 mph25%30.27 "Hg10 mi
8:55 PM49 °FClear.9 mph23%30.27 "Hg10 mi
8:15 PM49 °FClear.7 mph24%30.28 "Hg10 mi
7:35 PM50 °FClear.7 mph23%30.28 "Hg10 mi
7:15 PM51 °FClear.7 mph23%30.28 "Hg10 mi
6:55 PM52 °FClear.8 mph22%30.29 "Hg10 mi
6:15 PM56 °FSunny.5 mph16%30.29 "Hg10 mi
5:55 PM58 °FSunny.6 mph15%30.29 "Hg10 mi
5:15 PM59 °FSunny.7 mph15%30.30 "Hg10 mi
4:55 PM59 °FSunny.3 mph15%30.31 "Hg10 mi
4:15 PM59 °FSunny.3 mph14%30.31 "Hg10 mi
3:55 PM59 °FSunny.No wind15%30.32 "Hg10 mi
3:15 PM58 °FSunny.No wind15%30.33 "Hg10 mi
2:55 PM58 °FSunny.3 mph16%30.33 "Hg10 mi
2:15 PM58 °FSunny.3 mph17%30.36 "Hg10 mi
1:55 PM56 °FSunny.8 mph21%30.37 "Hg10 mi
1:35 PM56 °FSunny.9 mph21%30.38 "Hg10 mi
1:15 PM54 °FSunny.No wind24%30.40 "Hg10 mi
12:55 PM54 °FSunny.5 mph26%30.41 "Hg10 mi
12:35 PM53 °FSunny.8 mph26%30.43 "Hg10 mi
12:15 PM53 °FSunny.7 mph26%30.44 "Hg10 mi
11:55 AM51 °FSunny.8 mph27%30.45 "Hg10 mi
11:35 AM51 °FSunny.7 mph29%30.45 "Hg10 mi
11:15 AM49 °FSunny.6 mph31%30.46 "Hg10 mi
10:55 AM48 °FSunny.5 mph33%30.46 "Hg10 mi
10:35 AM47 °FSunny.6 mph34%30.47 "Hg10 mi
10:15 AM46 °FSunny.6 mph38%30.47 "Hg10 mi
9:55 AM42 °FSunny.7 mph44%30.47 "Hg10 mi
9:35 AM39 °FSunny.7 mph48%30.47 "Hg10 mi
9:15 AM36 °FSunny.7 mph54%30.46 "Hg10 mi
8:55 AM33 °FSunny.8 mph58%30.46 "Hg10 mi
8:35 AM32 °FSunny.7 mph60%30.45 "Hg10 mi
8:15 AM29 °FSunny.9 mph67%30.45 "Hg10 mi
7:55 AM29 °FSunny.8 mph68%30.44 "Hg10 mi
7:15 AM29 °FClear.6 mph68%30.43 "Hg10 mi
Weather by CustomWeather, © 2016

See weather overviewHow to use our weather pages